Regional Weather Roundup
Issued by NWS

Home | Current Version | Previous Version | Graphics & Text | Print | Product List | Glossary On
Versions: 1 2 3 4 5 6 7 8 9 10 11 12 13 14 15 16 17 18 19 20 21 22 23 24 25 26 27 28 29 30 31 32 33 34 35 36 37 38 39 40 41 42 43 44 45 46 47 48 49 50
000
ASUS43 KMKX 240800
RWRWI

WISCONSIN REGIONAL WEATHER ROUNDUP
NATIONAL WEATHER SERVICE MILWAUKEE/SULLIVAN WI
300 AM CDT SUN SEP 24 2017

NOTE: "FAIR" INDICATES FEW OR NO CLOUDS BELOW 12,000 FEET WITH NO
SIGNIFICANT WEATHER AND/OR OBSTRUCTIONS TO VISIBILITY.

WIZ001-002-006>008-014>016-023>028-240900-
NORTHWEST WISCONSIN

CITY           SKY/WX    TMP DP  RH WIND       PRES   REMARKS
SUPERIOR ARPT  CLOUDY    65  64  97 CALM      29.96F
ASHLAND        FOG       64  63  96 CALM      29.97F VSB 1
HAYWARD        CLEAR     70  63  78 S5        29.99S
SIREN          PTCLDY    67  66  97 CALM      29.96F FOG
CUMBERLAND     PTCLDY    70  63  78 S5        29.99S
RICE LAKE      PTCLDY    69  65  85 CALM      30.00F
CHETEK           N/A     69  66  91 CALM      30.00S
LADYSMITH      CLEAR     72  64  76 SE5       30.03S
EAU CLAIRE     NOT AVBL
MENOMONIE      PTCLDY    69  65  89 CALM      29.99S
NEW RICHMOND   PTCLDY    71  62  72 S6        29.97S
OSCEOLA        PTCLDY    72  64  75 S8        29.97F
$$

WIZ003>005-009-010-017-018-240900-
NORTH CENTRAL WISCONSIN

CITY           SKY/WX    TMP DP  RH WIND       PRES   REMARKS
MANITOWISH WTR NOT AVBL
ARBOR VITAE    PTCLDY    72  65  79 S6        30.06S
WOODRUFF       PTCLDY    72  65  79 S6        30.06S
RHINELANDER    PTCLDY    69  64  84 CALM      30.08S
EAGLE RIVER    CLOUDY    68  61  79 CALM      30.06S
LAND O LAKES   PTCLDY    68  64  85 CALM      30.09S
PHILLIPS       PTCLDY    70  65  82 S7        30.03S
TOMAHAWK       MOCLDY    64  62  94 CALM      30.06F
MEDFORD        CLEAR     67  62  84 SE6       30.05S
MERRILL        CLEAR     59  59 100 CALM      30.07S FOG
$$

WIZ029-030-035-036-043>047-240900-
CENTRAL WISCONSIN

CITY           SKY/WX    TMP DP  RH WIND       PRES   REMARKS
WAUSAU         CLEAR     67  64  90 SE5       30.05S
MOSINEE        PTCLDY    68  63  83 SE3       30.07S
MARSHFIELD     CLEAR     66  60  81 S5        30.05S
STEVENS POINT  CLEAR     63  63 100 CALM      30.06S
WAUPACA        CLEAR     68  67  97 CALM      30.06S FOG
WAUTOMA        CLEAR     64  63  96 CALM      30.06S
WISC RAPIDS    CLEAR     70  64  81 S3        30.06S
CAMP DOUGLAS   NOT AVBL
$$

WIZ011>013-019>022-031-037>040-048>050-240900-
NORTHEAST WISCONSIN

CITY           SKY/WX    TMP DP  RH WIND       PRES   REMARKS
ANTIGO         CLEAR     66  64  94 S5        30.09S
SHAWANO        CLEAR     71  66  84 CALM      30.06S
OCONTO         CLEAR     65  63  95 CALM      30.05S
STURGEON BAY   CLEAR     73  65  75 S9        30.08R
GREEN BAY      PTCLDY    70  67  90 S3        30.06S
MANITOWOC      CLEAR     68  64  87 S5        30.08S
APPLETON       CLEAR     68  61  77 S3        30.06S
CLINTONVILLE   CLEAR     66  63  88 CALM      30.06S
OSHKOSH        CLEAR     68  64  87 S6        30.06S
$$

WIZ032>034-041-042-053>061-240900-
SOUTHWEST WISCONSIN

CITY           SKY/WX    TMP DP  RH WIND       PRES   REMARKS
LA CROSSE      CLEAR     72  66  81 CALM      30.00S
SPARTA         CLEAR     65  62  91 CALM      30.04R
VIROQUA        CLEAR     70  65  83 SE7       30.05S
BOSCOBEL       CLEAR     64  63  96 CALM      30.03S FOG
PRAIRIE DU CHI CLEAR     68  62  82 E5        30.01F
PLATTEVILLE    CLEAR     70  65  83 E5        30.05S
$$

WIZ056-057-062-063-064-067-068-240900-
SOUTH CENTRAL WISCONSIN

CITY           SKY/WX    TMP DP  RH WIND       PRES   REMARKS
REEDSBURG      CLEAR     65  65 100 CALM      30.05S
BARABOO/DELLS  CLEAR     71  62  73 S6        30.06S
LONE ROCK      CLEAR     64  63  96 NE3       30.04S
MINERAL POINT  CLEAR     72  64  78 SE5       30.06F
MADISON        CLEAR     73  66  78 S6        30.06S
MIDDLETON      CLEAR     68  64  88 CALM      30.07S
WATERTOWN      CLEAR     68  66  96 CALM      30.07S
MONROE         CLEAR     72  61  68 S7        30.07S
JANESVILLE     CLEAR     70  66  88 E3        30.06S
$$

WIZ051-052-058>065-066-070>072-240900-
SOUTHEAST WISCONSIN

CITY           SKY/WX    TMP DP  RH WIND       PRES   REMARKS
MILWAUKEE      CLEAR     70  66  87 SE3       30.07F
WAUKESHA       CLEAR     70  63  78 S3        30.10S
MILWAUKEE/TIMM CLEAR     68  59  73 CALM      30.09S
RACINE         CLEAR     72  69  90 CALM      30.10S
BURLINGTON       N/A     63  63 100 CALM      30.08F FOG
KENOSHA        CLEAR     67  65  93 CALM      30.08S
FOND DU LAC    CLEAR     70  63  78 S7        30.07S
SHEBOYGAN      CLEAR     64  64 100 CALM      30.08S FOG
WEST BEND        N/A     63  63 100 CALM      30.09S
JUNEAU         CLEAR     69  64  85 CALM      30.09S
$$

LSZ147-162-240900-
LAKE SUPERIOR

STATION/POSITION TIME  TEMP    WIND        PRES    WAVE
                       AIR SEA DIR/SP/G            HT/PER
                 (UTC) (F)     (DEG/KT/KT) (MB)    (FT/S)
W MID LAKE BUOY  0650   60 56   30/  6/  6 1015.1S   0
DEVILS ISLAND    0700   64      50/  7/  8 1014.8R
SAXON HARBOR     0740   66      CALM  /  1 1014.2F
$$

LMZ867-665-643>646-240900-
LAKE MICHIGAN

STATION/POSITION TIME  TEMP    WIND        PRES    WAVE
                       AIR SEA DIR/SP/G            HT/PER
                 (UTC) (F)     (DEG/KT/KT) (MB)    (FT/S)
N MID LAKE BUOY  0650   69 67  180/  8/ 10 1018.4R   1/ 4
NORTHPORT PIER   0740   69     150/  5/  7 1017.6R
KEWAUNEE LAKESHO 0730   66     170/  5/  6 1017.5F
SHEBOYGAN LAKESH 0700   71     210/  5/  6 1018.1R
PORT WASHINGTON  0730   70      CALM  /  2 1019.3S
ATWATER BUOY     0639   69 65  160/  6/  6 1018.6R
MILWAUKEE LAKESH 0730   69     220/  1/  2   N/A
S MID LAKE BUOY  0650   73 70  100/  8/  8 1018.5R   0
KENOSHA   LAKESH 0700   71        CALM     1018.3
$$

TC  - TEMPERATURE IN CELSIUS
VSB - VISIBILITY IN STATUTE MILES
WCI - WIND CHILL INDEX
HX  - HEAT INDEX





USA.gov is the U.S. government's official web portal to all federal, state and local government web resources and services.